Regional Weather Roundup
Issued by NWS

Home | Current Version | Previous Version | Text Only | Print | Product List | Glossary Off
Versions: 1 2 3 4 5 6 7 8 9 10 11 12 13 14 15 16 17 18 19 20 21 22 23 24 25 26 27 28 29 30 31 32 33 34 35 36 37 38 39 40 41 42 43 44 45 46 47 48 49 50

000
ASUS44 KMEG 031310
RWRTN
TENNESSEE HOURLY STATE WEATHER ROUNDUP
NATIONAL WEATHER SERVICE MEMPHIS TN
800 AM CDT FRI JUL 03 2015

TNZ002-004-019-021-049-052-054-088>092-031400-
WEST TENNESSEE

CITY           SKY/WX    TMP DP  RH WIND       PRES   REMARKS
MEMPHIS INTL   TSTM      72  70  93 SW9G24    29.94R VSB 1
NWS MEMPHIS      N/A     71 N/A N/A MISG        N/A
JACKSON        CLOUDY    73  69  87 SW3       29.91S
DYERSBURG        N/A    N/A N/A N/A MISG        N/A
PARIS          PTSUNNY   70  66  88 SW8       29.89R
LEXINGTON      CLOUDY    72  70  94 S6        29.91R
$$

TNZ008-025-027-028-033-062-065-066-031400-
NORTH MIDDLE TENNESSEE

CITY           SKY/WX    TMP DP  RH WIND       PRES   REMARKS
NASHVILLE      PTSUNNY   74  70  87 SW5       29.88S
CLARKSVILLE    PTSUNNY   73  70  90 SW8       29.86S
SMYRNA         PTSUNNY   74  70  87 W9        29.89S
COOKEVILLE     CLOUDY    75  73  94 SW9       29.90S
CROSSVILLE     LGT RAIN  72  68  87 W10G18    29.95S
$$

TNZ061-075-076-078-094-096-097-031400-
SOUTH MIDDLE TENNESSEE

CITY           SKY/WX    TMP DP  RH WIND       PRES   REMARKS
FAYETTEVILLE   CLOUDY    68  66  94 S7        29.96R
TULLAHOMA      MOSUNNY   68  66  94 SW9       29.94S
WINCHESTER     CLOUDY    70  68  94 SW6       29.94F
MCMINNVILLE    PTSUNNY   73  73 100 SW10      29.92S
COLUMBIA       CLOUDY    72  70  94 SW7       29.90S
SHELBYVILLE    MOSUNNY  N/A N/A N/A MISG        N/A
$$

TNZ017-018-042-046-047-031400-
NORTHEAST TENNESSEE

CITY           SKY/WX    TMP DP  RH WIND       PRES   REMARKS
TRI CITIES     CLOUDY    71  68  90 E5        29.93F
ELIZABETHTON   PTSUNNY   66  66 100 E3        29.95F
$$

TNZ012-013-036-069-073-074-031400-
CENTRAL EAST TENNESSEE

CITY           SKY/WX    TMP DP  RH WIND       PRES   REMARKS
KNOXVILLE      CLOUDY    70  66  88 W3        29.91R
OAK RIDGE      CLOUDY    71  69  93 CALM      29.93R
GATLINBURG     SUNNY     70  66  88 CALM      29.91S
MORRISTOWN     MOSUNNY   72  70  94 CALM      29.93F
$$

TNZ083-085-099-031400-
SOUTHEAST TENNESSEE

CITY           SKY/WX    TMP DP  RH WIND       PRES   REMARKS
CHATTANOOGA    CLOUDY    74  72  93 S5        29.93S
$$

SKY/WX REPORTED AS FAIR MEANS FEW OR NO CLOUDS BELOW
12 THOUSAND FEET.



USA.gov is the U.S. government's official web portal to all federal, state and local government web resources and services.